Regional Weather Roundup
Issued by NWS

Home | Current Version | Previous Version | Graphics & Text | Print | Product List | Glossary On
Versions: 1 2 3 4 5 6 7 8 9 10 11 12 13 14 15 16 17 18 19 20 21 22 23 24 25 26 27 28 29 30 31 32 33 34 35 36 37 38 39 40 41 42 43 44 45 46 47 48 49 50
000
ASUS45 KTFX 230904
RWRMT
MONTANA HOURLY WEATHER ROUNDUP
NATIONAL WEATHER SERVICE GREAT FALLS MT
304 AM MDT WED APR 23 2014

NOTE: "FAIR" INDICATES FEW OR NO CLOUDS BELOW 12000 FEET WITH NO
SIGNIFICANT WEATHER AND/OR OBSTRUCTIONS TO VISIBILITY.

* THESE STATIONS ARE NOT UNDER NWS QUALITY CONTROL. THEY DO NOT
   REPORT WEATHER SUCH AS PRECIPITATION OR FOG.

MTZ001>007-043-231000-
WEST OF THE DIVIDE
CITY           SKY/WX    TMP DP  RH WIND       PRES   REMARKS
KALISPELL      CLOUDY    39  27  62 S8        29.72R WCI  33
MISSOULA       CLOUDY    39  30  70 W7        29.80S WCI  34
BUTTE          LGT SNOW  28  25  89 NW16G25   29.73R VSB 1 1/4 WCI  16
MULLAN PASS    MOCLDY    25  19  78 W8        29.74R WCI  16
* ESSEX        N/A       34  32  92 N/A        N/A
* LINCOLN      N/A       34  29  82 SW6G14     N/A   WCI  29
* LOOKOUT PASS N/A       32  23  69 SE6G12     N/A   WCI  26
* POLSON       N/A       36  28  73 S2G10      N/A
* RONAN APT    CLOUDY    41  30  65 S5         N/A
* SEELEY LAKE  N/A       35  31  85 N/A        N/A
* THOMP F APT  MOCLDY    32  32 100 W6G14      N/A   WCI  26
$$

MTZ008-052>055-231000-
SOUTHWEST MONTANA
CITY           SKY/WX    TMP DP  RH WIND       PRES   REMARKS
BOZEMAN        LGT SNOW  36  30  79 NW15      29.64F WCI  27
DILLON         LGT SNOW  30  28  92 NW7       29.72R VSB 2    WCI  23
W YELLOWSTONE  N/A       32  31  96 SW4G12     N/A
* THREE FORKS  CLOUDY    39  18  43 NW14       N/A   WCI  31
* BOULDER HILL N/A       32  13  45 N7G24      N/A   WCI  25
* MONIDA PASS  N/A       26  26 100 NW24G29    N/A   WCI  11
* RAYNOLDS PAS N/A       32   9  38 S11        N/A   WCI  23
* WHITEHALL    N/A       37  32  82 W11G17     N/A   WCI  29
* WISE RIVER   N/A       28  24  85 W13G26     N/A   WCI  17
$$

MTZ009>010-012-014-046-048-049-054-231000-
EAST SLOPES AND CENTRAL MONTANA
CITY           SKY/WX    TMP DP  RH WIND       PRES   REMARKS
CUT BANK       CLOUDY    37  30  76 W28G36    29.53R WCI  25
GREAT FALLS    CLOUDY    39  37  93 SW16      29.58R WCI  30
HELENA         CLOUDY    39  27  62 W16       29.67R WCI  30
MALMSTROM AFB  CLOUDY    41  36  82 SW20      29.55R
* CONRAD       CLOUDY    43  32  65 SW20G29    N/A
* DEARBORN     N/A       42  28  58 S4G16      N/A
* EAST GLACIER N/A       34  23  64 W20G31     N/A   WCI  23
* MONARCH      N/A       34  30  85 W11G17     N/A   WCI  26
* PENDROY      N/A       39  24  55 NW15G23    N/A   WCI  31
* ROGERS PASS  N/A       30  26  85 SE15G26    N/A   WCI  19
* SAINT MARY   N/A       36  26  67 S11G26     N/A   WCI  28
* SWEET GRASS  N/A       40  34  79 SW18G26    N/A   WCI  31
$$

MTZ011-013-016-021-035-040-045-047-050-051-231000-
NORTH CENTRAL MONTANA
CITY           SKY/WX    TMP DP  RH WIND       PRES   REMARKS
HAVRE          LGT RAIN  45  43  93 W12       29.50R
LEWISTOWN      LGT RAIN  39  37  93 NW12      29.53S WCI  32
* CHESTER      N/A       44  40  86 W9G17      N/A
* DENTON       N/A       42  39  89 NW12G19    N/A
* GEYSER       N/A       38  36  93 W22G28     N/A   WCI  27
* JUDITH GAP   N/A       38  38 100 VRB25G31    N/A   WCI  27
* LOMA         N/A       45  41  86 SW9        N/A
$$

MTZ017>020-022>027-061-062-231000-
NORTHEAST MONTANA
CITY           SKY/WX    TMP DP  RH WIND       PRES   REMARKS
GLASGOW        CLOUDY    54  30  40 SE22G30   29.35R
GLENDIVE       CLOUDY    54  34  47 E20       29.39F
JORDAN         CLOUDY    52  36  55 NE6       29.34F
SIDNEY         CLOUDY    55  34  45 N/A       29.43F
WOLF POINT     CLOUDY    55  30  39 E22G33    29.37F
* BEAVER HILL  N/A       52  33  48 E31G40     N/A
* CIRCLE       N/A       54  34  47 E11G22     N/A
* LINDSAY DVD  N/A       48  32  54 E16        N/A
* NAVAJO       N/A       50  31  48 E18G30     N/A
* SACO         N/A       54  31  42 E15G20     N/A
$$

MTZ028>042-056>058-231000-
SOUTHCENTRAL AND SOUTHEAST MONTANA
CITY           SKY/WX    TMP DP  RH WIND       PRES   REMARKS
BAKER          CLOUDY    50  36  59 E15       29.39F
BILLINGS       LGT RAIN  50  36  59 NW10      29.48R
LIVINGSTON     CLOUDY    39 N/A N/A W17G30    29.57S WCI  30
MILES CITY     CLOUDY    54  37  53 NE10      29.30F
* LAUREL APT   CLOUDY    50  30  46 W9         N/A
* ROUNDUP APT  CLOUDY    52  37  57 W6         N/A
* HYSHAM       N/A       51  41  69 W14G22     N/A
* LAME DEER    N/A       56  41  57 S12        N/A
* REED POINT   N/A       47  34  61 W29G40     N/A
* ROSCOE HILL  N/A       49  20  32 S16G24     N/A
$$

REGIONAL REPORTS...DAKOTAS
CITY           SKY/WX    TMP DP  RH WIND       PRES   REMARKS
WILLISTON      CLOUDY    52  34  50 E25G37    29.48F
DICKINSON      LGT RAIN  52  34  50 E22       29.49F
CROSBY         CLEAR     46  34  63 E26G37    29.57F
TIOGA          PTCLDY    48  32  54 E22G35    29.60F
WATFORD CITY   CLEAR     54  36  51 SE39G46   29.46F
BISMARCK       CLOUDY    52  39  61 E25G31    29.66F
GRAND FORKS    MOCLDY    43  28  56 SE13      29.94F
FARGO          CLOUDY    48  28  46 SE15      29.94S
BUFFALO SD     CLOUDY    57  45  64 SE15      29.34F
RAPID CITY     MOCLDY    54  43  67 S14       29.48F
$$

REGIONAL REPORTS...WYOMING/IDAHO/WASHINGTON
CITY           SKY/WX    TMP DP  RH WIND       PRES   REMARKS
GILLETTE       MOCLDY    54  39  57 SW18      29.45S
SHERIDAN       MOCLDY    63  36  37 W10       29.40R
CODY           CLOUDY    48  25  41 W17G22    29.51R
YELLOWSTONE LA PTCLDY    28  23  81 W8        29.67F WCI  20
SALMON         CLOUDY    37  27  67 S3        29.82S
MULLAN PASS    MOCLDY    25  19  78 W8        29.74S WCI  16
SPOKANE        CLEAR     36  27  70 S12       29.82R WCI  28
$$

REGIONAL REPORTS...ALBERTA
CITY           SKY/WX    TMP DP  RH WIND       PRES   REMARKS
EDMONTON       LGT RAIN  52  36  55 E17       29.36S

$$




USA.gov is the U.S. government's official web portal to all federal, state and local government web resources and services.